{"data":{"norad_id":63378,"epoch":"2026-09-20T04:22:13.784736Z","epoch_age_seconds":186334,"freshness":"STALE","line1":"1 63378U 25063R   26263.18210399  .00018360  00000+0  55288-3 0  9993","line2":"2 63378  53.1576 227.1809 0000671  63.2967 296.8105 15.34417099 84569","mean_motion":15.34417099,"eccentricity":6.71e-5,"inclination_deg":53.1576,"raan_deg":227.1809,"arg_perigee_deg":63.2967,"mean_anomaly_deg":296.8105,"bstar":0.00055288,"rev_number":8456,"period_min":93.8467122752,"perigee_km":462.1934018776,"apogee_km":463.11143581761,"semimajor_km":6840.7894188476,"source":"CELESTRAK","updated_at":"2026-09-21T09:00:34.975177Z"}}